Location: Maccacari
(45.1333°N, 11.1333°E)
Time: 03:34:01
(UTC+00:00)

Altair - Pass Details

Date: 30 January 2021
Orbit: 1501 x 1682 km, 47.2° (Epoch: 01 March)

Event Time Altitude Azimuth Distance (km) Brightness Sun altitude
Rises 08:43:41 0° 293° (WNW) 4,932 9.6 17.0°
Reaches altitude 10° 08:46:55 10° 290° (WNW) 3,948 9.2 17.3°
Maximum altitude 08:56:43 56° 216° (SW) 1,935 8.5 18.4°
Drops below altitude 10° 09:06:23 10° 141° (SE) 3,887 12.1 19.5°
Sets 09:09:34 0° 137° (SE) 4,852 11.7 19.8°
